Location: Coopersdale
(40.3556°N, 78.9372°W)
Time: 01:36:13
(UTC+00:00)

Transit 4A - Pass Details

Date: 24 January 2021
Orbit: 867 x 978 km, 66.8° (Epoch: 07 March)

Event Time Altitude Azimuth Distance (km) Brightness Sun altitude
Rises 00:23:34 0° 212° (SSW) 3,653 11.5 -22.7°
Reaches altitude 10° 00:26:07 10° 213° (SSW) 2,715 10.8 -23.2°
Maximum altitude 00:32:29 78° 299° (WNW) 1,003 8.0 -24.4°
Enters shadow 00:35:54 30° 22° (NNE) 1,683 9.0 -25.1°
Drops below altitude 10° 00:38:54 10° 27° (NNE) 2,721 - -25.6°
Sets 00:41:28 0° 29° (NNE) 3,662 - -26.1°
